Flag for Colombia Weather past 2 weeks in Villavicencio, Colombia

Now
66 °F

Passing clouds.


Feels Like: 66 °F
Forecast: 64 / 89 °F
Wind: 14 mph from Southeast

Location: Bogota / Eldorado

Current Time: Aug 30, 2014 at 11:34:59 AM

Latest Report: Aug 30, 2014 at 11:00 AM


Visibility: N/A

Pressure: 30.42 "Hg

Humidity: 32%

Dew point: 36 °F

Location of VillavicencioLocation

Historic Weather in Villavicencio — Graph

°F

Villavicencio temperature yesterday

Maximum temperature yesterday: 66 °F (at 2:00 PM)
Minimum temperature yesterday: 46 °F (at 6:00 AM)
Average temperature yesterday: 56 °F

Past Weeks' High & Low Weather Summary

 TemperatureHumidityPressure
High68 °F (Aug 22, 11:00 AM)100% (Aug 17, 4:00 AM)30.43 "Hg (Aug 17, 4:00 AM)
Low36 °F (Aug 30, 6:00 AM)30% (Aug 30, 10:00 AM)30.20 "Hg (Aug 25, 4:00 PM)
Average56 °F73%30.33 "Hg
* Reported Aug 15 10:00 AM — Aug 30 10:00 AM, Villavicencio, Weather by CustomWeather, © 2014

Note: Actual official high and low records may vary slightly from our data, if they occured in-between our weather recording intervals... More about our weather records

Advertising

Villavicencio weather history for previous 24 hours

 ConditionsComfort  
Time TempWeatherWind HumidityBarometerVisibility
10:00 AM
Aug 30
66 °FPassing clouds.14 mph30%30.43 "HgN/A
9:00 AM61 °FPassing clouds.7 mph48%30.43 "HgN/A
8:00 AM55 °FPassing clouds.6 mph63%30.43 "HgN/A
7:00 AM45 °FPassing clouds.7 mph87%30.41 "HgN/A
6:00 AM36 °FFog.5 mph100%30.41 "HgN/A
5:00 AM39 °FPassing clouds.3 mph100%30.39 "HgN/A
4:00 AM41 °FPassing clouds.6 mph100%30.39 "HgN/A
3:00 AM41 °FPassing clouds.5 mph93%30.40 "HgN/A
2:00 AM41 °FPassing clouds.3 mph87%30.41 "HgN/A
1:00 AM45 °FPassing clouds.5 mph87%30.41 "HgN/A
12:00 AM46 °FPassing clouds.6 mph82%30.43 "HgN/A
11:00 PM
Aug 29
50 °FPassing clouds.6 mph76%30.42 "HgN/A
10:00 PM52 °FPassing clouds.7 mph72%30.41 "HgN/A
9:00 PM55 °FPassing clouds.14 mph59%30.39 "HgN/A
8:00 PM55 °FPassing clouds.14 mph55%30.37 "HgN/A
7:00 PM54 °FPassing clouds.16 mph63%30.34 "HgN/A
6:00 PM59 °FPassing clouds.16 mph48%30.32 "HgN/A
5:00 PM63 °FScattered clouds.12 mph45%30.31 "HgN/A
4:00 PM63 °FScattered clouds.15 mph49%30.31 "HgN/A
2:00 PM66 °FScattered showers. Scattered clouds.23 mph43%30.33 "HgN/A
1:00 PM64 °FScattered clouds.20 mph43%30.34 "HgN/A
12:00 PM64 °FPartly sunny.20 mph43%30.38 "HgN/A
11:00 AM63 °FPartly sunny.18 mph49%30.39 "HgN/A
Weather by CustomWeather, © 2014

See weather overviewHow to use our weather pages